world map with LLHZ marked

LLHZ - Airport

This information may not be accurate or current and is not valid for navigation or flight planning. No warranty of fitness for any purpose is made or implied.

flag of Israel

Donate via PayPal

Additional information is available on the NEW Great Circle Mapper

Location
City:  Herzlia, Israel
ICAO:LLHZ

Details
Type:Airport (Aerodrome, Airfield)
Latitude:32°10'50"N (32.180557)
Longitude:34°50'05"E (34.834721)
Elevation:121 ft (37 m)
Runways:unknown number
Longest:2963 ft (903 m)

Time
Timezone:UTC+2 (DST+5)
Local Time:

Weather
TAF:LLHZ  140508Z 1412/1512 27012KT 9999 SCT030 BECMG 1416/1418 24006KT SCT025 TEMPO 14005KT 1500/1506 BKN025 BECMG 1506/1508 27010KT TX30/1412Z TN25/1503Z

Related Locations
Nearby:
Farthest:RVV: 11840 mi / 19054 km
Raivavae, Tubuai Islands, Austral Islands, PF

Find:

   beyond  
but within

Other Information
Maps:
Links:
Sources:

  


 


Great Circle Mapper   Great Circle Mapper
Great Circle Mapper FAQ   Great Circle Mapper FAQ
  Karl's Home Page
KLSē   KLSē Home
   GC on Facebook
Airlines of the World   Airlines of the World
Donate via PayPal


Copyright © 2004-2018, Karl L. Swartz. All rights reserved.
All trademarks mentioned herein belong to their respective owners.

Please see credits for attribution and copyright information.

Karl Swartz <karl@kls2.com>
  Powered by FreeBSD
Valid HTML 4.01!
Labeled with ICRA
hCard Microformat
Geo Microformat